This is the latest recevied weather packets stored in our database for station/object KC5AV. If no packets are shown the sender has not sent any weather packets the latest 10 day(s).
| Time | Temp. | Humidity | Pressure | Rain* | Wind** | Luminosity | Snow |
|---|---|---|---|---|---|---|---|
| 1777753656 | 23.89° C | 41% | 1020.6 hPa | 0 mm | - | 405 W/m² | - |
| 1777753354 | 23.89° C | 44% | 1020.3 hPa | 0 mm | - | 803 W/m² | - |
| 1777753051 | 23.89° C | 40% | 1020.5 hPa | 0 mm | - | 831 W/m² | - |
| 1777752748 | 24.44° C | 39% | 1020.4 hPa | 0 mm | - | 815 W/m² | - |
| 1777752444 | 24.44° C | 41% | 1020.6 hPa | 0 mm | - | 825 W/m² | - |
| 1777752140 | 23.89° C | 42% | 1020.6 hPa | 0 mm | - | 830 W/m² | - |
| 1777751839 | 23.89° C | 43% | 1020.6 hPa | 0 mm | - | 264 W/m² | - |
| 1777751535 | 23.89° C | 45% | 1020.8 hPa | 0 mm | - | 904 W/m² | - |
| 1777751231 | 23.33° C | 50% | 1021.1 hPa | 0 mm | - | 929 W/m² | - |
| 1777750929 | 22.78° C | 40% | 1020.9 hPa | 0 mm | - | 912 W/m² | - |
| 1777750624 | 22.78° C | 43% | 1021 hPa | 0 mm | - | 901 W/m² | - |
| 1777750322 | 23.89° C | 40% | 1021 hPa | 0 mm | - | 161 W/m² | - |
| 1777750017 | 23.89° C | 41% | 1020.8 hPa | 0 mm | - | 898 W/m² | - |
| 1777749715 | 22.78° C | 46% | 1021.1 hPa | 0 mm | - | 922 W/m² | - |
| 1777749411 | 22.78° C | 45% | 1021.1 hPa | 0 mm | - | 149 W/m² | - |
| 1777749108 | 23.33° C | 39% | 1021.1 hPa | 0 mm | - | 180 W/m² | - |
| 1777748806 | 24.44° C | 40% | 1021.2 hPa | 0 mm | - | 937 W/m² | - |
| 1777748504 | 23.89° C | 45% | 1021.2 hPa | 0 mm | - | 998 W/m² | - |
| 1777748198 | 23.33° C | 40% | 1021.3 hPa | 0 mm | - | 979 W/m² | - |
| 1777747895 | 23.33° C | 42% | 1021.5 hPa | 0 mm | - | 970 W/m² | - |
| 1777747591 | 23.89° C | 46% | 1021.3 hPa | 0 mm | - | 223 W/m² | - |
| 1777747287 | 23.33° C | 44% | 1021.3 hPa | 0 mm | - | 1007 W/m² | - |
| 1777746984 | 22.78° C | 41% | 1021.3 hPa | 0 mm | - | 940 W/m² | - |
| 1777746680 | 23.33° C | 45% | 1021.8 hPa | 0 mm | - | 969 W/m² | - |
| 1777746375 | 23.33° C | 44% | 1021.7 hPa | 0 mm | - | 961 W/m² | - |
* Rain latest hour (hover to see other rain measurements)
** Current wind speed in m/s (hover to see current wind gust speed)